Location: Hall+in+Tirol
(47.2830°N, 11.5170°E)
Time: 00:22:57
(UTC+02:00)

Gurwin Techsat 1B - Visible Passes

Search period start: 30 May 2015 00:00
Search period end: 09 June 2015 00:00
Orbit: 812 x 815 km, 98.5° (Epoch: 29 May)

Date Brightness Start Highest point End Pass type
(mag) Time Alt. Az. Time Alt. Az. Time Alt. Az.
30 May 9.8 03:14:31 10° NNE 03:19:26 37° E 03:24:22 10° SSE visible
31 May 10.4 02:52:13 10° NE 02:56:28 24° E 03:00:49 10° SSE visible
31 May 9.0 04:31:37 10° N 04:36:47 52° WNW 04:41:55 10° SW visible
01 Jun 10.9 02:30:20 10° NE 02:33:25 16° E 02:36:43 10° SE visible
01 Jun 8.6 04:08:46 10° NNE 04:14:07 79° WNW 04:19:26 10° SSW visible
02 Jun 8.9 03:46:03 10° NNE 03:51:22 69° ESE 03:56:41 10° S visible
03 Jun 9.5 03:23:27 10° NNE 03:28:33 45° E 03:33:38 10° S visible
04 Jun 10.2 03:01:03 10° NE 03:05:37 29° E 03:10:15 10° SSE visible
04 Jun 9.2 04:40:45 10° N 04:45:47 44° WNW 04:50:47 10° SW visible
05 Jun 10.7 02:38:57 10° NE 02:42:37 19° E 02:46:25 10° SE visible
05 Jun 8.7 04:17:51 10° N 04:23:09 66° WNW 04:28:25 10° SSW visible
06 Jun 11.1 02:17:38 10° ENE 02:19:29 12° E 02:21:38 10° ESE visible
06 Jun 8.7 03:55:04 10° NNE 04:00:26 82° ESE 04:05:46 10° SSW visible
07 Jun 9.2 03:32:25 10° NNE 03:37:38 53° E 03:42:51 10° S visible
08 Jun 9.9 03:09:56 10° NNE 03:14:45 35° E 03:19:37 10° SSE visible
